GW7345 Weather Reports


time (UTC)temp
F
wind
direction
speed
knots
gust
knots
rain 1hr
in
rain 24hr
in
rain mn
in
humidity
%
barometer
mb
20260508145016 65 93 1.7 5.2 0.00 0.09 0.00 57 1018.2
20260508144536 65 114 0.9 4.3 0.00 0.09 0.00 60 1018.2
20260508144015 65 213 0.9 4.3 0.00 0.09 0.00 60 1018.2
20260508143515 65 205 0.9 3.5 0.00 0.10 0.00 61 1018.2
20260508143016 64 75 1.7 5.2 0.00 0.10 0.00 58 1018.1
20260508142516 64 96 1.7 3.5 0.00 0.10 0.00 63 1018.2
20260508142016 64 87 0.9 4.3 0.00 0.10 0.00 64 1018.3
20260508141516 64 123 0.9 4.3 0.00 0.10 0.00 65 1018.3
20260508141016 63 92 1.7 4.3 0.00 0.10 0.00 66 1018.3
20260508140516 63 72 1.7 4.3 0.00 0.10 0.00 67 1018.3
20260508140016 63 99 0.9 4.3 0.00 0.10 0.00 70 1018.3
20260508135516 62 187 0.0 2.6 0.00 0.10 0.00 72 1018.3
20260508135016 62 78 1.7 4.3 0.00 0.10 0.00 70 1018.2
20260508134516 62 71 0.9 4.3 0.00 0.10 0.00 72 1018.2
20260508134016 61 93 0.9 4.3 0.00 0.10 0.00 73 1018.1
20260508133637 61 93 0.9 3.5 0.00 0.10 0.00 74 1018.1
20260508133017 61 99 0.9 3.5 0.00 0.10 0.00 75 1018.1
20260508132516 60 76 0.9 2.6 0.00 0.11 0.00 75 1018.1
20260508132016 60 90 0.9 2.6 0.00 0.11 0.00 76 1018.2
20260508131517 60 64 0.9 2.6 0.00 0.11 0.00 77 1018.1
20260508131017 59 101 0.0 2.6 0.00 0.11 0.00 79 1018.1
20260508130537 58 107 0.0 2.6 0.00 0.12 0.00 81 1018.0
20260508130017 58 153 0.0 2.6 0.00 0.14 0.00 81 1018.0
20260508125517 58 156 0.0 1.7 0.00 0.16 0.00 83 1017.9
20260508125037 57 110 0.9 2.6 0.00 0.18 0.00 83 1017.8
20260508124517 57 148 0.0 1.7 0.00 0.23 0.00 84 1017.7
20260508124017 57 199 0.9 2.6 0.00 0.28 0.00 86 1017.7
20260508123517 56 104 0.9 2.6 0.00 0.34 0.00 87 1017.6
20260508123018 56 98 0.9 2.6 0.00 0.36 0.00 88 1017.5
20260508122517 55 90 0.9 2.6 0.00 0.36 0.00 91 1017.5
20260508122017 55 162 0.0 1.7 0.00 0.36 0.00 92 1017.4
20260508121617 54 188 0.0 1.7 0.00 0.36 0.00 93 1017.4
20260508121017 54 108 0.9 3.5 0.00 0.36 0.00 93 1017.4
20260508120518 54 122 0.9 3.5 0.00 0.36 0.00 94 1017.4
20260508120015 54 193 0.0 1.7 0.00 0.36 0.00 96 1017.4
20260508115537 53 127 0.0 1.7 0.00 0.36 0.00 99 1017.3
20260508115038 53 80 0.0 1.7 0.00 0.36 0.00 99 1017.2
20260508114515 52 122 0.0 1.7 0.00 0.36 0.00 99 1017.1
20260508114018 52 146 0.0 1.7 0.00 0.36 0.00 99 1017.0
20260508113518 52 127 0.0 0.9 0.00 0.36 0.00 99 1016.9
20260508113015 51 0.0 0.0 0.00 0.36 0.00 99 1016.8
20260508112515 51 0.0 0.0 0.00 0.36 0.00 99 1016.7
20260508112026 50 0.0 0.0 0.00 0.36 0.00 99 1016.6
20260508111546 49 0.0 0.0 0.00 0.36 0.00 99 1016.5
20260508111106 48 0.0 0.0 0.00 0.36 0.00 99 1016.5
20260508110526 48 0.0 0.0 0.00 0.36 0.00 99 1016.4
20260508110026 47 0.0 0.0 0.00 0.36 0.00 99 1016.3
20260508105526 47 0.0 0.0 0.00 0.36 0.00 99 1016.3
20260508105026 47 0.0 0.0 0.00 0.36 0.00 99 1016.2
20260508104526 47 0.0 0.0 0.00 0.36 0.00 99 1016.0
20260508104027 47 0.0 0.0 0.00 0.36 0.00 99 1015.9
20260508103527 47 0.0 0.0 0.00 0.36 0.00 99 1015.8
20260508103027 47 0.0 0.0 0.00 0.36 0.00 99 1015.7
20260508102547 47 0.0 0.0 0.00 0.36 0.00 99 1015.6
20260508102027 47 0.0 0.0 0.00 0.36 0.00 99 1015.6
20260508101527 48 0.0 0.0 0.00 0.36 0.00 99 1015.6
20260508101027 48 0.0 0.0 0.00 0.36 0.00 99 1015.5
20260508100527 48 111 0.0 0.0 0.00 0.36 0.00 99 1015.5
20260508100027 48 111 0.0 0.0 0.00 0.36 0.00 99 1015.4
20260508095527 48 0.0 0.0 0.00 0.36 0.00 99 1015.4
20260508095027 48 0.0 0.0 0.00 0.36 0.00 99 1015.4
20260508094527 48 0.0 0.0 0.00 0.36 0.00 99 1015.3
20260508094028 48 0.0 0.0 0.00 0.37 0.00 99 1015.3
20260508093528 48 0.0 0.0 0.00 0.37 0.00 99 1015.3
20260508093027 48 163 0.0 0.9 0.00 0.38 0.00 99 1015.3
20260508092528 49 0.0 0.0 0.00 0.38 0.00 99 1015.3
20260508092028 49 0.0 0.0 0.00 0.38 0.00 99 1015.2
20260508091528 48 0.0 0.0 0.00 0.39 0.00 99 1015.1
20260508091028 48 0.0 0.0 0.00 0.39 0.00 99 1015.1
20260508090528 48 0.0 0.0 0.00 0.39 0.00 99 1015.1
20260508090028 49 0.0 0.0 0.00 0.40 0.00 99 1015.2
20260508085528 49 0.0 0.0 0.00 0.40 0.00 99 1015.1
20260508085028 49 0.0 0.0 0.00 0.41 0.00 99 1015.0
20260508084528 49 0.0 0.0 0.00 0.41 0.00 99 1015.0
20260508084029 49 0.0 0.0 0.00 0.41 0.00 99 1015.0
20260508083528 49 0.0 0.0 0.00 0.41 0.00 99 1014.9
20260508083028 49 0.0 0.0 0.00 0.41 0.00 99 1014.9
20260508082528 49 0.0 0.0 0.00 0.42 0.00 99 1014.9
20260508082029 49 0.0 0.0 0.00 0.43 0.00 99 1014.8
20260508081529 49 0.0 0.0 0.00 0.44 0.00 99 1014.8
20260508081029 49 0.0 0.0 0.00 0.45 0.00 99 1014.6
20260508080549 50 0.0 0.0 0.00 0.46 0.00 99 1014.6
20260508080029 50 0.0 0.0 0.00 0.48 0.00 99 1014.5
20260508075529 50 0.0 0.0 0.00 0.50 0.00 99 1014.5
20260508075029 50 0.0 0.0 0.00 0.51 0.00 99 1014.5
20260508074529 50 0.0 0.0 0.00 0.51 0.00 99 1014.6
20260508074029 51 174 0.0 0.0 0.00 0.52 0.00 99 1014.6
20260508073529 51 174 0.0 0.9 0.00 0.52 0.00 99 1014.4
20260508073030 51 0.0 0.0 0.00 0.53 0.00 99 1014.4
20260508072516 51 0.0 0.0 0.00 0.54 0.00 99 1014.3
20260508072016 51 0.0 0.0 0.00 0.55 0.00 99 1014.3
20260508071516 51 0.0 0.0 0.00 0.57 0.00 99 1014.3
20260508071036 52 0.0 0.0 0.00 0.60 0.00 99 1014.3
20260508070516 52 0.0 0.0 0.00 0.62 0.00 99 1014.3
20260508070016 52 0.0 0.0 0.00 0.64 0.00 99 1014.2
20260508065516 52 0.0 0.0 0.00 0.67 0.00 99 1014.2
20260508065016 52 0.0 0.0 0.00 0.69 0.00 99 1014.2
20260508064516 52 0.0 0.0 0.00 0.72 0.00 99 1014.2
20260508064016 52 0.0 0.0 0.00 0.75 0.00 99 1014.2
20260508063536 53 0.0 0.0 0.00 0.77 0.00 99 1014.3
20260508062530 53 0.0 0.0 0.00 0.88 0.00 99 1014.4
20260508062030 53 0.0 0.0 0.00 0.91 0.00 99 1014.4
20260508061531 54 0.0 0.0 0.00 0.94 0.00 99 1014.4
20260508061030 54 0.0 0.0 0.00 0.95 0.00 99 1014.4
20260508060531 54 0.0 0.0 0.00 0.95 0.00 99 1014.3
20260508060051 54 0.0 0.0 0.00 0.95 0.00 99 1014.4
20260508055551 54 0.0 0.0 0.00 0.95 0.00 99 1014.5
20260508055031 54 0.0 0.0 0.00 0.95 0.00 99 1014.4
20260508054520 54 0.0 0.0 0.00 0.95 0.00 99 1014.5
20260508054021 54 157 0.0 1.7 0.00 0.95 0.00 99 1014.3
20260508053520 55 0.0 0.0 0.00 0.96 0.00 99 1014.2
20260508053021 55 0.0 0.0 0.00 0.96 0.00 99 1014.3
20260508052518 55 0.0 0.0 0.00 0.96 0.00 99 1014.3
20260508052018 55 0.0 0.0 0.00 0.96 0.00 99 1014.3
20260508051518 55 179 0.0 0.9 0.00 0.96 0.00 99 1014.3
20260508051018 55 0.0 0.0 0.00 0.96 0.00 99 1014.3
20260508050518 55 0.0 0.0 0.00 0.96 0.00 99 1014.3
20260508050015 55 0.0 0.0 0.00 0.96 0.00 99 1014.1
20260508045515 55 0.0 0.0 0.00 0.96 0.00 99 1014.2
20260508045015 56 0.0 0.0 0.00 0.96 0.00 99 1014.1
20260508044515 56 0.0 0.0 0.00 0.96 0.00 99 1014.0
20260508044015 56 0.0 0.0 0.00 0.96 0.00 99 1014.0
20260508043536 56 0.0 0.0 0.00 0.96 0.00 99 1014.0
20260508043015 56 0.0 0.0 0.00 0.96 0.00 99 1014.1
20260508042516 56 0.0 0.0 0.00 0.96 0.00 99 1014.0
20260508042016 56 0.0 0.0 0.00 0.96 0.00 99 1013.9
20260508041516 56 0.0 0.0 0.00 0.96 0.00 99 1013.9
20260508041016 55 0.0 0.0 0.00 0.96 0.00 99 1013.9
20260508040516 55 0.0 0.0 0.00 0.96 0.00 99 1013.8
20260508040016 55 0.0 0.0 0.00 0.96 0.00 99 1013.9
20260508035556 55 161 0.0 0.9 0.00 0.96 0.96 99 1014.0
20260508035016 55 169 0.0 0.9 0.00 0.96 0.96 99 1013.8
20260508034516 56 0.0 0.0 0.00 0.96 0.96 99 1013.7
20260508034016 56 0.0 0.0 0.00 0.96 0.96 99 1013.7
20260508033516 56 0.0 0.0 0.00 0.96 0.96 99 1013.7
20260508033016 56 0.0 0.0 0.00 0.96 0.96 99 1013.8
20260508032517 56 0.0 0.0 0.00 0.97 0.96 99 1014.0
20260508032017 56 327 0.0 0.0 0.00 0.97 0.96 99 1013.8
20260508031517 56 0.0 0.0 0.00 0.97 0.96 100 1013.7
20260508031017 56 0.0 0.0 0.00 0.97 0.96 100 1013.7
20260508030517 56 0.0 0.0 0.00 0.97 0.96 100 1013.7
20260508030017 56 0.0 0.0 0.00 0.97 0.96 99 1013.7
20260508025517 56 0.0 0.0 0.00 0.98 0.96 99 1013.6
20260508025017 56 0.0 0.0 0.00 0.99 0.96 99 1013.6
20260508024537 56 249 0.0 0.0 0.00 1.01 0.96 99 1013.5
20260508024017 57 166 0.0 1.7 0.00 1.04 0.96 99 1013.4
20260508023517 57 0.0 0.0 0.00 1.05 0.96 99 1013.5
20260508023017 57 0.0 0.0 0.00 1.08 0.96 99 1013.3
20260508022517 57 153 0.0 0.9 0.00 1.09 0.96 99 1013.2
20260508022018 57 131 0.0 2.6 0.00 1.10 0.96 98 1013.1
20260508021518 57 81 0.9 1.7 0.00 1.11 0.96 98 1013.0
20260508021018 57 103 0.9 2.6 0.00 1.12 0.96 98 1013.0
20260508020518 57 100 0.9 1.7 0.00 1.12 0.96 98 1012.9
20260508020015 57 90 0.9 1.7 0.00 1.12 0.96 99 1012.8
20260508015518 57 109 0.9 1.7 0.00 1.13 0.96 99 1012.7
20260508015018 57 105 0.0 1.7 0.00 1.13 0.96 98 1012.7
20260508014515 57 115 0.0 2.6 0.00 1.13 0.96 98 1012.6
20260508014023 57 97 0.9 2.6 0.00 1.13 0.96 98 1012.5
20260508013518 57 95 0.0 0.9 0.00 1.13 0.96 98 1012.5
20260508013035 57 170 0.0 1.7 0.00 1.13 0.96 98 1012.4
20260508012515 58 127 0.9 3.5 0.00 1.13 0.96 98 1012.3
20260508012015 58 141 0.0 1.7 0.00 1.13 0.96 98 1012.2
20260508011515 58 144 0.0 1.7 0.00 1.14 0.96 98 1012.2
20260508011016 58 82 0.0 1.7 0.00 1.22 0.96 98 1012.3
20260508010516 58 295 0.0 1.7 0.02 1.25 0.96 97 1012.3
20260508010036 58 136 0.0 2.6 0.03 1.26 0.96 98 1011.9
20260508005516 58 104 0.0 1.7 0.03 1.26 0.96 98 1011.8
20260508005016 58 85 0.9 2.6 0.03 1.26 0.96 97 1011.6
20260508004516 58 73 0.9 3.5 0.03 1.26 0.96 97 1011.7
20260508004016 58 70 0.9 2.6 0.04 1.26 0.96 97 1011.7
20260508003516 58 104 0.0 1.7 0.09 1.26 0.96 96 1011.7
20260508003016 58 111 0.9 3.5 0.09 1.26 0.96 96 1011.5
20260508002517 58 152 0.9 1.7 0.09 1.26 0.96 96 1011.2
20260508002017 58 57 0.9 4.3 0.09 1.26 0.96 96 1011.0
20260508001517 58 83 0.9 2.6 0.09 1.26 0.95 96 1011.2
20260508001016 58 71 0.9 2.6 0.08 1.26 0.95 96 1011.1
20260508000516 58 148 0.9 3.5 0.07 1.25 0.94 96 1010.7
20260508000017 58 103 1.7 3.5 0.06 1.23 0.92 95 1010.2
20260507235517 59 113 1.7 7.0 0.06 1.23 0.92 95 1010.3
20260507235037 59 123 1.7 7.0 0.06 1.23 0.92 94 1010.0
20260507234517 60 117 1.7 4.3 0.05 1.23 0.92 93 1009.8
20260507234017 60 123 1.7 6.1 0.05 1.23 0.92 89 1010.0
20260507233557 61 157 0.9 7.0 0.00 1.17 0.87 87 1010.4
20260507233038 61 150 1.7 5.2 0.00 1.17 0.87 87 1009.8
20260507232517 61 99 1.7 6.1 0.00 1.17 0.87 86 1009.7
20260507232017 61 90 1.7 7.8 0.00 1.17 0.87 86 1009.2
20260507231538 61 120 2.6 7.0 0.00 1.17 0.87 86 1008.8
20260507231037 62 104 2.6 7.8 0.00 1.17 0.87 86 1008.9
20260507230518 62 122 1.7 5.2 0.00 1.17 0.87 86 1009.2
20260507230017 62 120 2.6 7.0 0.00 1.17 0.87 85 1009.1
20260507225518 63 127 2.6 7.0 0.00 1.17 0.87 85 1009.1
20260507225038 64 102 2.6 8.7 0.00 1.17 0.87 84 1009.0
20260507224518 65 141 2.6 7.8 0.00 1.17 0.87 84 1008.9
20260507224015 67 177 1.7 6.1 0.00 1.17 0.87 83 1009.1
20260507223515 72 193 2.6 7.8 0.00 1.17 0.87 78 1008.6
20260507223015 76 251 2.6 7.0 0.00 1.17 0.87 71 1008.2
20260507222518 77 293 0.9 5.2 0.00 1.17 0.87 70 1007.7
20260507222015 77 237 0.9 4.3 0.00 1.17 0.87 69 1007.5
20260507221515 78 303 0.9 3.5 0.00 1.17 0.87 68 1007.4
20260507221015 79 203 1.7 6.1 0.00 1.17 0.87 66 1007.4
20260507220515 79 189 2.6 7.0 0.00 1.17 0.87 66 1007.3
20260507220016 79 280 1.7 5.2 0.00 1.17 0.87 66 1007.1
20260507215516 79 293 1.7 6.1 0.00 1.17 0.87 66 1007.2
20260507215016 78 191 2.6 7.8 0.00 1.17 0.87 67 1007.1
20260507214516 78 188 2.6 8.7 0.00 1.17 0.87 68 1007.0
20260507214015 78 187 3.5 8.7 0.00 1.17 0.87 68 1006.9
20260507213516 78 195 1.7 6.1 0.00 1.17 0.87 67 1007.0
20260507213056 77 192 3.5 7.0 0.00 1.17 0.87 69 1007.0
20260507212516 78 186 3.5 7.0 0.00 1.17 0.87 71 1007.1
20260507212036 79 190 2.6 7.0 0.00 1.17 0.87 70 1007.2
20260507211516 80 190 2.6 7.8 0.00 1.17 0.87 67 1007.1
20260507211016 79 211 1.7 6.1 0.00 1.17 0.87 64 1007.2
20260507210516 79 194 2.6 7.8 0.00 1.17 0.87 65 1007.1
20260507210017 78 216 1.7 7.0 0.00 1.17 0.87 67 1007.1
20260507205516 77 188 2.6 7.8 0.00 1.17 0.87 68 1007.1
20260507205016 78 223 1.7 4.3 0.00 1.17 0.87 67 1007.2
20260507204517 79 262 1.7 7.0 0.00 1.17 0.87 66 1007.2
20260507204017 79 299 1.7 5.2 0.00 1.17 0.87 65 1007.2
20260507203536 79 187 2.6 7.8 0.00 1.17 0.87 64 1007.1
20260507203037 79 201 1.7 7.0 0.00 1.17 0.87 64 1007.1
20260507202517 78 207 2.6 7.0 0.00 1.17 0.87 65 1007.2
20260507202037 78 192 3.5 7.0 0.00 1.17 0.87 65 1007.3
20260507201517 78 236 1.7 5.2 0.00 1.17 0.87 67 1007.3
20260507201017 77 210 2.6 7.0 0.00 1.17 0.87 68 1007.5
20260507200517 77 255 1.7 6.1 0.00 1.17 0.87 69 1007.5
20260507200017 77 296 1.7 5.2 0.00 1.17 0.87 70 1007.6
20260507195517 76 260 0.9 4.3 0.00 1.17 0.87 72 1007.6
20260507195018 76 216 0.9 3.5 0.00 1.17 0.87 72 1007.8
20260507194517 77 227 0.9 3.5 0.00 1.17 0.87 72 1008.1
20260507194017 77 239 1.7 6.1 0.00 1.17 0.87 71 1008.0
20260507193518 77 215 2.6 6.1 0.00 1.17 0.87 73 1008.0
20260507193018 76 191 2.6 6.1 0.00 1.17 0.87 73 1008.1
20260507192518 75 239 1.7 5.2 0.00 1.17 0.87 74 1008.3
20260507192038 75 189 2.6 6.1 0.00 1.17 0.87 75 1008.3
20260507191518 75 207 2.6 5.2 0.00 1.17 0.87 76 1008.3
20260507191018 75 256 1.7 3.5 0.00 1.17 0.87 76 1008.3
20260507190518 75 194 1.7 5.2 0.00 1.17 0.87 77 1008.3
20260507190015 74 298 0.9 4.3 0.00 1.17 0.87 79 1008.4
20260507185515 74 240 0.9 3.5 0.00 1.17 0.87 79 1008.3
20260507185018 74 296 0.9 3.5 0.00 1.17 0.87 79 1008.2
20260507184558 73 222 0.9 4.3 0.00 1.17 0.87 80 1008.3
20260507184035 74 292 1.7 4.3 0.00 1.17 0.87 80 1008.3
20260507183516 74 289 0.9 5.2 0.00 1.17 0.87 79 1008.3
20260507183015 74 297 0.9 3.5 0.00 1.17 0.87 80 1008.3
20260507182516 74 292 0.9 2.6 0.00 1.18 0.87 81 1008.2
20260507182016 74 247 0.9 3.5 0.00 1.19 0.87 82 1008.2
20260507181516 74 195 0.9 5.2 0.00 1.20 0.87 81 1008.1
20260507181016 74 275 1.7 6.1 0.00 1.21 0.87 81 1008.2
20260507180516 73 280 1.7 3.5 0.00 1.21 0.87 83 1008.4
20260507180056 73 304 1.7 4.3 0.00 1.21 0.87 84 1008.4
20260507175516 73 279 0.9 4.3 0.00 1.21 0.87 84 1008.5
20260507175016 72 259 1.7 4.3 0.00 1.21 0.87 85 1008.7
20260507174516 71 199 1.7 6.1 0.00 1.21 0.87 87 1008.9
20260507174016 71 245 0.9 3.5 0.00 1.21 0.87 88 1008.8
20260507173516 71 237 1.7 3.5 0.00 1.21 0.87 88 1008.8
20260507173016 71 191 0.9 5.2 0.00 1.21 0.87 88 1008.8
20260507172516 71 261 0.9 3.5 0.00 1.21 0.87 89 1009.0
20260507172016 71 307 0.9 4.3 0.00 1.21 0.87 88 1008.9
20260507171537 71 206 1.7 5.2 0.00 1.21 0.87 89 1008.7
20260507171017 71 190 2.6 4.3 0.00 1.21 0.87 89 1008.8
20260507170517 71 235 0.9 4.3 0.00 1.21 0.87 90 1008.7
20260507170017 71 199 0.9 5.2 0.00 1.21 0.87 91 1008.9
20260507165517 71 191 1.7 4.3 0.00 1.21 0.87 91 1009.1
20260507165017 70 267 0.9 3.5 0.00 1.21 0.87 92 1009.4
20260507164517 70 260 1.7 6.1 0.00 1.21 0.87 93 1009.5
20260507164017 69 292 0.9 3.5 0.00 1.21 0.87 94 1009.7
20260507163517 69 209 0.9 4.3 0.00 1.21 0.87 94 1009.7
20260507163017 69 220 0.9 3.5 0.00 1.21 0.87 93 1009.6
20260507162517 69 223 1.7 4.3 0.00 1.21 0.87 93 1009.2
20260507162017 69 196 1.7 5.2 0.00 1.21 0.87 93 1009.1
20260507161517 70 247 0.9 3.5 0.00 1.21 0.87 93 1009.3
20260507161018 70 287 0.9 2.6 0.00 1.21 0.87 94 1008.9
20260507160517 70 194 2.6 4.3 0.00 1.21 0.87 92 1008.6
20260507160018 70 193 1.7 3.5 0.00 1.21 0.87 92 1008.4
20260507155530 70 199 1.7 3.5 0.00 1.21 0.87 92 1008.3
20260507155030 70 192 0.9 3.5 0.00 1.21 0.87 92 1008.4
20260507154550 70 209 1.7 2.6 0.00 1.21 0.87 93 1008.3
20260507154015 70 158 0.0 1.7 0.01 1.21 0.87 94 1008.3
20260507153515 69 182 0.9 1.7 0.01 1.21 0.87 93 1008.4
20260507153015 69 193 1.7 3.5 0.01 1.21 0.87 94 1008.5
20260507152550 68 307 0.9 2.6 0.01 1.21 0.87 96 1008.8
20260507152051 0 0.0 0.0 0.01 1.21 0.87
20260507151530 68 294 0.0 0.0 0.01 1.21 0.87 98 1009.0
20260507151015 68 295 0.9 1.7 0.01 1.21 0.87 98 1009.3
20260507150516 68 224 0.9 3.5 0.01 1.21 0.87 98 1009.6
20260507150015 68 265 1.7 3.5 0.01 1.21 0.87 98 1009.7
20260507145516 67 194 0.9 2.6 0.01 1.21 0.87 98 1009.6